TimeCST,TemperatureF,Dew PointF,Humidity,Sea Level PressureIn,VisibilityMPH,Wind Direction,Wind SpeedMPH,Gust SpeedMPH,PrecipitationIn,Events,Conditions,WindDirDegrees,DateUTC
12:53 AM,26.1,21.9,84,30.37,7.0,Calm,Calm,-,N/A,,Clear,0,2012-12-13 06:53:00
1:53 AM,25.0,21.0,85,30.38,7.0,North,3.5,-,N/A,,Clear,350,2012-12-13 07:53:00
2:53 AM,25.0,21.0,85,30.40,6.0,Calm,Calm,-,N/A,,Clear,0,2012-12-13 08:53:00
3:53 AM,24.1,19.9,84,30.40,6.0,East,3.5,-,N/A,,Clear,100,2012-12-13 09:53:00
4:53 AM,23.0,19.0,85,30.40,5.0,ESE,5.8,-,N/A,,Clear,110,2012-12-13 10:53:00
5:53 AM,24.1,19.9,84,30.42,5.0,East,3.5,-,N/A,,Clear,100,2012-12-13 11:53:00
6:53 AM,23.0,19.0,85,30.41,5.0,Calm,Calm,-,N/A,,Clear,0,2012-12-13 12:53:00
7:53 AM,27.0,23.0,85,30.43,5.0,Calm,Calm,-,N/A,,Clear,0,2012-12-13 13:53:00
8:53 AM,34.0,27.0,75,30.41,6.0,SSE,8.1,-,N/A,,Haze,150,2012-12-13 14:53:00
9:53 AM,39.0,28.0,65,30.41,8.0,South,12.7,-,N/A,,Clear,180,2012-12-13 15:53:00
10:53 AM,43.0,28.9,58,30.39,10.0,South,9.2,-,N/A,,Clear,180,2012-12-13 16:53:00
11:53 AM,46.0,28.9,51,30.36,10.0,South,12.7,-,N/A,,Clear,170,2012-12-13 17:53:00
12:53 PM,48.9,26.1,41,30.34,10.0,South,13.8,-,N/A,,Clear,170,2012-12-13 18:53:00
1:53 PM,50.0,26.1,39,30.31,10.0,South,12.7,-,N/A,,Clear,170,2012-12-13 19:53:00
2:53 PM,48.9,28.0,44,30.29,10.0,South,12.7,-,N/A,,Clear,170,2012-12-13 20:53:00
3:53 PM,46.9,30.0,52,30.28,10.0,South,9.2,-,N/A,,Clear,170,2012-12-13 21:53:00
5:53 PM,36.0,27.0,70,30.28,10.0,South,8.1,-,N/A,,Clear,170,2012-12-13 23:53:00
7:53 PM,35.1,25.0,67,30.27,10.0,South,6.9,-,N/A,,Clear,170,2012-12-14 01:53:00
8:53 PM,34.0,25.0,70,30.27,9.0,South,5.8,-,N/A,,Clear,180,2012-12-14 02:53:00
9:53 PM,35.1,25.0,67,30.27,10.0,South,5.8,-,N/A,,Clear,180,2012-12-14 03:53:00
10:53 PM,30.9,24.1,76,30.27,9.0,North,-9999.0,-,N/A,,Clear,0,2012-12-14 04:53:00